Location: Brown Observing Site
(43.4354°N, 116.3366°W)
Time: 10:39:01
(UTC-06:00)

ISS - Visible Passes

Search period start: 19 March 2019 00:00
Search period end: 29 March 2019 00:00
Orbit: 406 x 411 km, 51.6° (Epoch: 20 March)

Date Brightness Start Highest point End Pass type
(mag) Time Alt. Az. Time Alt. Az. Time Alt. Az.
20 Mar -1.7 21:59:42 10° SW 22:00:51 20° SW 22:00:51 20° SW visible
21 Mar -3.1 21:09:00 10° SSW 21:12:02 35° SE 21:12:53 29° ESE visible
21 Mar -0.5 22:45:30 10° W 22:45:41 11° W 22:45:41 11° W visible
22 Mar -3.3 21:54:14 10° WSW 21:57:29 57° NNW 21:57:29 57° NNW visible
23 Mar -3.9 21:03:07 10° SW 21:06:25 86° SE 21:09:05 15° ENE visible
23 Mar -0.9 22:40:31 10° WNW 22:41:51 18° NW 22:41:51 18° NW visible
24 Mar -2.2 21:49:05 10° W 21:52:05 31° NNW 21:53:16 24° NNE visible
25 Mar -2.8 20:57:44 10° W 21:00:55 45° NNW 21:04:06 10° NE visible
25 Mar -1.1 22:35:32 10° NW 22:37:16 18° NNW 22:37:16 18° NNW visible
26 Mar -1.6 21:44:05 10° WNW 21:46:46 22° NNW 21:48:25 16° NNE visible
27 Mar -2.0 20:52:36 10° W 20:55:29 27° NNW 20:58:24 10° NE visible
27 Mar -1.3 22:30:19 10° NW 22:32:13 18° NNW 22:32:13 18° NNW visible
28 Mar -1.5 21:38:59 10° NW 21:41:28 19° N 21:43:12 14° NE visible
28 Mar -0.2 23:15:54 10° NW 23:15:56 10° NW 23:15:56 10° NW visible
